2020-058C (46234 NORAD) Tracking and Keplerian Element Data

This shows tracking and keplerian element data for the satellite.

Feedback or suggestion? Click here.




ElementValue
Catalog46234
Name2020-058C
Epoch Orbit477
Epoch Day267.54840024
Epoch Year2020
RAAN315.0743
Inclination97.4996
Eccentricity0.0017361
Argument of Perigee156.1155
Mean Anonmoly310.1405
Mean Motion15.24089013
Decay Rate2.43E-06
L11 46234U 20058C 20267.54840024 .00000243 00000-0 12983-4 0 9994
L22 46234 97.4996 315.0743 0017361 156.1155 310.1405 15.24089013 4775

Live tracking and technical data element details for 2020-058C (NORAD 46234). 2020-058C can be tracked NOW for your location showing map with azimuth and elevation plus other details from your city location.

Track the satellite on the map from your city or location and see movement details for azimuth, elevation, latitude, longitude, range, height, and movement on the map or in text.







IsCatalogInMostPopularTable: catalog: 46234, numindb: 3
Update: records affected: 1



GetName: 46234 2020-058C

Hit Count: updated at: Thu, 24 Sep 2020 17:18:16 GMT